Weather History for KYIP - August, 2013

Change the Weather History Date:

Monday, August 19, 2013

  Actual Average Record
Temperature  
Mean Temperature 72 °F -  
Max Temperature 84 °F 80 °F 93 °F (1983)
Min Temperature 59 °F 59 °F 48 °F (1977)
Cooling Degree Days 6    
Growing Degree Days 22 (Base 50)    
Moisture  
Dew Point 58 °F    
Average Humidity 62    
Maximum Humidity 94    
Minimum Humidity 30    
Precipitation  
Precipitation 0.01 in - - ()
Sea Level Pressure  
Sea Level Pressure 30.11 in    
Wind  
Wind Speed 2 mph (WSW)    
Max Wind Speed 12 mph    
Max Gust Speed 17 mph    
Visibility 8 miles    
Events      
Averages and records for this station are not official NWS values.
T = Trace of Precipitation, MM = Missing Value Source: NWS Daily Summary

Daily Weather History Graph

Daily Weather History Graph

Search for Another Location

Airport or City:

Trip Planner

Search our weather history database for the weather conditions in past years. The results will help you decide how hot, cold, wet, or windy it might be!

Date:

Astronomy

Aug. 19, 2013 Rise Set
Actual Time 6:45 AM EDT 8:28 PM EDT
Civil Twilight 6:16 AM EDT 8:58 PM EDT
Nautical Twilight 5:39 AM EDT 9:34 PM EDT
Astronomical Twilight 5:00 AM EDT 10:12 PM EDT
Moon 7:18 PM EDT (8/19) 5:03 AM EDT (8/19)
Length of Visible Light 14h 42m
Length of Day
13h 42m
Waxing Gibbous, 97% of the Moon is Illuminated
Aug 19
Waxing Gibbous
Aug 20
Full
Aug 28
Last Quarter
Sep 5
New
Sep 12
First Quarter

Hourly Weather History & Observations

Time (EDT) Temp. Heat Index Dew Point Humidity Pressure Visibility Wind Dir Wind Speed Gust Speed Precip Events Conditions
12:53 AM 60.8 °F - 57.9 °F 90% 30.14 in 8.0 mi Calm Calm - N/A   Clear
1:53 AM 60.8 °F - 57.9 °F 90% 30.14 in 6.0 mi Calm Calm - N/A   Clear
2:53 AM - - - N/A% 30.13 in 6.0 mi Calm Calm - N/A   Haze
3:53 AM 59.0 °F - 55.9 °F 90% 30.13 in 6.0 mi Calm Calm - N/A   Clear
4:53 AM - - - N/A% 30.12 in 7.0 mi Calm Calm - 0.01 in   Clear
5:23 AM - - - N/A% 30.12 in 2.5 mi Calm Calm - N/A   Clear
5:41 AM - - - N/A% 30.13 in 6.0 mi Calm Calm - N/A   Haze
5:53 AM - - - N/A% 30.13 in 6.0 mi Calm Calm - N/A   Haze
6:53 AM - - - N/A% 30.14 in 6.0 mi Calm Calm - N/A   Haze
7:53 AM - - - N/A% 30.14 in 4.0 mi Calm Calm - N/A   Haze
8:53 AM 66.2 °F - 64.4 °F 94% 30.14 in 4.0 mi SSW 3.5 mph - N/A   Haze
9:53 AM 71.6 °F - 60.1 °F 67% 30.14 in 9.0 mi Calm Calm - N/A   Clear
10:53 AM - - - N/A% 30.14 in 9.0 mi Calm Calm - 0.00 in   Unknown
11:53 AM 77.0 °F - 61.5 °F 59% 30.11 in 10.0 mi Calm Calm - 0.00 in   Clear
12:53 PM 80.6 °F 80.4 °F 55.0 °F 41% 30.11 in 10.0 mi SW 5.8 mph - N/A   Scattered Clouds
1:53 PM - - - N/A% 30.11 in 10.0 mi West 4.6 mph 17.3 mph N/A   Scattered Clouds
2:53 PM - - - N/A% 30.10 in 10.0 mi West 11.5 mph - N/A   Mostly Cloudy
3:53 PM 82.9 °F 82.0 °F 55.0 °F 38% 30.07 in 10.0 mi WSW 9.2 mph - N/A   Partly Cloudy
4:53 PM 84.0 °F - 52.0 °F 33% 30.08 in 10.0 mi West 8.1 mph - N/A   Partly Cloudy
5:53 PM 82.9 °F 82.0 °F 55.0 °F 38% 30.07 in 10.0 mi WSW 8.1 mph - N/A   Clear
6:53 PM 82.0 °F - 48.0 °F 30% 30.06 in 10.0 mi WSW 9.2 mph - N/A   Clear
7:53 PM 79.0 °F - 57.9 °F 48% 30.06 in 10.0 mi WSW 6.9 mph - N/A   Clear
8:53 PM 75.0 °F - 59.0 °F 57% 30.07 in 8.0 mi Calm Calm - N/A   Clear
9:53 PM 69.1 °F - 60.1 °F 73% 30.07 in 10.0 mi Calm Calm - N/A   Clear
10:53 PM 68.0 °F - 60.1 °F 76% 30.09 in 9.0 mi Calm Calm - N/A   Scattered Clouds
11:53 PM 69.1 °F - 61.0 °F 75% 30.07 in 8.0 mi WSW 3.5 mph - N/A   Clear